Tracking 20242 objects as of 24-Jan-2020
HD Live streaming from Space Station
objects crossing your sky now

COSMOS 2251 DEB

Track COSMOS 2251 DEB now!
10-day predictions


NORAD ID: 35464
Int'l Code: 1993-036ALJ
Perigee: 649.1 km
Apogee: 719.9 km
Inclination: 74.0 °
Period: 98.3 minutes
Semi major axis: 7055 km
RCS: 0.0073 m2 (small)
Launch date: June 16, 1993
Source: Commonwealth of Independent States (former USSR) (CIS)
Launch site: PLESETSK MISSILE AND SPACE COMPLEX (PKMTR)

Note: This is SATELLITE DEBRIS
aabbcc
Your satellite tracking list
Your tracking list is empty




NASA's NSSDC Master Catalog

Two Line Element Set (TLE):
1 35464U 93036ALJ 20023.55938921 +.00000542 +00000-0 +10563-3 0  9991
2 35464 074.0162 346.0057 0050229 299.9922 177.8721 14.64911128259140
Source of the keplerian elements: AFSPC